Regional Weather Roundup
Issued by NWS Wilmington, NC

Home | Current Version | Previous Version | Text Only | Print | Product List | Glossary On
Versions: 1 2 3 4 5 6 7 8 9 10 11 12 13 14 15 16 17 18 19 20 21 22 23 24 25 26 27 28 29 30 31 32 33 34 35 36 37 38 39 40 41 42 43 44 45 46 47 48 49 50
000
ASUS42 KILM 230610
RWRILM
RWRILM
REGIONAL HOURLY WEATHER ROUNDUP
NATIONAL WEATHER SERVICE WILMINGTON NC
200 AM EDT SAT AUG 23 2014

NOTE: "FAIR" INDICATES FEW OR NO CLOUDS BELOW 12,000 FEET WITH NO
SIGNIFICANT WEATHER AND/OR OBSTRUCTIONS TO VISIBILITY.

...............WFO WILMINGTON COUNTY WARNING AREA...............

......COASTAL NC AND SC COUNTIES......

CITY           SKY/WX    TMP DP  RH WIND       PRES   REMARKS
WILMINGTON     FAIR      75  73  93 CALM      29.93F
SOUTHPORT      FAIR      75  74  95 CALM      29.93F
N MYRTLE BEACH FAIR      83  79  88 S5        29.93F HX  94
MYRTLE BEACH   FAIR      82  77  83 SW5       29.93F HX  91

......INLAND NC AND SC COUNTIES.......

CITY           SKY/WX    TMP DP  RH WIND       PRES   REMARKS
LUMBERTON      FAIR      76  72  87 CALM      29.93F
ELIZABETHTOWN  FAIR      74  72  92 CALM      29.93F
WHITEVILLE     FAIR      75  72  91 CALM      29.93F
FLORENCE       FAIR      78  74  87 CALM      29.93F
DARLINGTON     FAIR      77  72  83 CALM      29.94F

....................REST OF NORTH CAROLINA......................

.........EASTERN NC.........

CITY           SKY/WX    TMP DP  RH WIND       PRES   REMARKS
CAPE HATTERAS  MOCLDY    77  73  87 NE5       29.93F
JACKSONVILLE   FAIR      73  70  88 CALM      29.94F
MOREHEAD CITY  FAIR      78  73  84 N3        29.92F
KENANSVILLE    FAIR      71  70  96 CALM      29.95F
NEW BERN       FAIR      77  73  87 CALM      29.94F
ELIZABETH CITY FAIR      74  72  93 NE6       29.95F

.........CENTRAL NC.........

CITY           SKY/WX    TMP DP  RH WIND       PRES   REMARKS
RALEIGH DURHAM MOCLDY    76  73  91 SW5       29.96F
ROCKY MOUNT    FAIR      76  72  87 CALM      29.95F
ROANOKE RAPIDS NOT AVBL
FAYETTEVILLE   FAIR      73  70  90 CALM      29.93F
HOFFMAN        MOCLDY    78  71  80 N3        29.98R

.........WESTERN NC.........

CITY           SKY/WX    TMP DP  RH WIND       PRES   REMARKS
CHARLOTTE      CLOUDY    76  71  85 N3        29.98F
GREENSBORO     CLOUDY    78  73  84 W3        29.98S
HICKORY        NOT AVBL
BOONE          NOT AVBL
ASHEVILLE      NOT AVBL

.....................REST OF SOUTH CAROLINA.....................

.........EASTERN SC.........

CITY           SKY/WX    TMP DP  RH WIND       PRES   REMARKS
CHARLESTON     FAIR      84  78  82 SW7       29.94S HX  95
BEAUFORT MCAS  FAIR      82  76  81 SW3       29.94F
HILTON HEAD    NOT AVBL

.........CENTRAL SC.........

CITY           SKY/WX    TMP DP  RH WIND       PRES   REMARKS
COLUMBIA       FAIR      81  71  71 CALM      29.94F
ORANGEBURG     FAIR      78  73  84 CALM      29.95S
SUMTER SHAW    FAIR      81  73  77 NW5       29.93F

.........WESTERN SC.........

CITY           SKY/WX    TMP DP  RH WIND       PRES   REMARKS
GREENVILLE     NOT AVBL
ROCK HILL      FAIR      77  72  84 NE3       29.98F
ANDERSON       FAIR      77  71  82 NW6       29.99F
CLEMSON        NOT AVBL
GREENWOOD      FAIR      77  68  73 W3        29.98F


...................COASTAL AND OFFSHORE REPORTS..................

................LOCAL PIERS AND NC RESERVE................


STATION/POSITION TIME  SKY/WX   TEMP    WIND        PRES    VSBY
                                AIR SEA DIR/SP/G
                 (UTC)          (F)     (DEG/KT/KT) (MB)    (MI)
JOHNY MRCER PIER 0600            80 84   CALM  /  2 1012.9F
NC RESRV MASNBRO 0500            75     330/  1     1013.0S
OCEAN CREST PIER 0600            83 85  170/  7/  8 1012.9F
SPRINGMAID  PIER 0600            83 84  240/  4/  5 1013.5S


................COASTAL AND OFFSHORE BUOYS................


STATION/POSITION TIME  SKY/WX   TEMP    WIND        PRES    VSBY
                                AIR SEA DIR/SP/G
                 (UTC)          (F)     (DEG/KT/KT) (MB)    (MI)
DIMNDSHOAL 41025 0600            78     320/  8/ 10 1013.2F
WVE H/P(F/S)=  2/ 8 WND WVE H/P(F/S)=  2/ 4 SWL H/P/D(F/S/D)=  2/ 20/ 8

CAPE LOOKOUT     0500            81      20/  6/  7 1013.6F
ONSLOW BAY 41036 0600            82 83  310/ 14/ 16 1012.9F
WVE H/P(F/S)=  2/ 5 WND WVE H/P(F/S)=  2/ 5

5 WRITEBCH 41038 0600            78 83   80/  4/  4   N/A
MASONBORO  41110 0600               83                N/A
WVE H/P(F/S)=  2/ 3 WND WVE H/P(F/S)=  2/ 3

WILM HARBR 41108 0600               85                N/A
WVE H/P(F/S)=  1/ 3 WND WVE H/P(F/S)=  2/ 3

27WRITEBCH 41037 0500            80 83  280/ 10/ 10 1013.5F
FRYING PAN 41013 NOT AVBL
SUNST NRSH 41024 0500            84     170/  8/ 10 1013.8F
CAPRS NRSH 41029 0500            86     230/ 12/ 14   N/A
EDISTO     41004 0600            85 85  220/ 10/ 12 1013.5F
WVE H/P(F/S)=  2/ 9 WND WVE H/P(F/S)=  2/ 3 SWL H/P/D(F/S/D)=  2/ 9



..........OFFSHORE BUOYS BEYOND 100 NM OFFSHORE...........
.....IN A TRIANGLE---HAT TO BERMUDA TO BAHAMAS TO HAT.....


STATION/POSITION TIME  SKY/WX   TEMP    WIND        PRES    VSBY
                                AIR SEA DIR/SP/G
                 (UTC)          (F)     (DEG/KT/KT) (MB)    (MI)
150E HAT   41001 NOT AVBL
W BERMUDA  41048 0521            81 81  240/ 16/ 19 1012.3F
WVE H/P(F/S)=  4/ 5 WND WVE H/P(F/S)=  3/ 5 SWL H/P/D(F/S/D)=  2/120/10

ATLANTIC S 41049 0513            84 86  150/  8/ 10 1015.7F
WVE H/P(F/S)=  5/ 8 WND WVE H/P(F/S)=  2/ 4 SWL H/P/D(F/S/D)=  5/150/ 8

E BAHAMAS  41046 0451            83 85  120/ 10/ 12 1012.9F
WVE H/P(F/S)=  8/ 9 WND WVE H/P(F/S)=  2/ 4 SWL H/P/D(F/S/D)=  8/120/ 9

NE BAHAMAS 41047 0524            83 84  100/  8/ 10 1015.9F
WVE H/P(F/S)=  3/ 7 WND WVE H/P(F/S)=  2/ 4 SWL H/P/D(F/S/D)=  3/130/ 7

120E CANVRL41010 0600            84 86  190/  6/  8 1015.8F
WVE H/P(F/S)=  2/ 6 SWL H/P/D(F/S/D)=  2/140/ 6


END



USA.gov is the U.S. government's official web portal to all federal, state and local government web resources and services.